Regional Weather Roundup
Issued by NWS

Home | Current Version | Previous Version | Text Only | Print | Product List | Glossary Off
Versions: 1 2 3 4 5 6 7 8 9 10 11 12 13 14 15 16 17 18 19 20 21 22 23 24 25 26 27 28 29 30 31 32 33 34 35 36 37 38 39 40 41 42 43 44 45 46 47 48 49 50

000
ASUS45 KBOI 310110
RWRID
WEATHER ROUNDUP FOR IDAHO
NATIONAL WEATHER SERVICE BOISE ID
700 PM MDT SAT AUG 30 2014

NOTE: "FAIR" INDICATES FEW OR NO CLOUDS BELOW 12000 FEET
WITH NO SIGNIFICANT WEATHER AND/OR OBSTRUCTIONS TO VISIBILITY

IDZ012-014-310200-
SOUTHWEST IDAHO


CITY           SKY/WX    TMP DP  RH WIND       PRES   REMARKS
BOISE          CLOUDY    79  40  24 N9        29.82F
CALDWELL       CLOUDY    77  43  29 SE3       29.82F
MOUNTAIN HOME  CLOUDY    78  39  24 N9        29.82F
$$

IDZ016-017-310200-
SOUTHCENTRAL IDAHO


CITY           SKY/WX    TMP DP  RH WIND       PRES   REMARKS
BURLEY         PTSUNNY   69  43  38 W8        29.87F
JEROME         CLOUDY    69  44  40 SW8       29.88F
TWIN FALLS     CLOUDY    70  48  45 NW6       29.88F
$$

IDZ019>023-310200-
SOUTHEAST IDAHO


CITY           SKY/WX    TMP DP  RH WIND       PRES   REMARKS
IDAHO FALLS    PTSUNNY   71  43  36 S15       29.86F
POCATELLO      MOSUNNY   71  41  33 SW12      29.89S
REXBURG        PTSUNNY   65  51  60 N5        29.87F
$$

IDZ006-010-011-018-031-032-310200-
CENTRAL IDAHO MOUNTAINS


CITY           SKY/WX    TMP DP  RH WIND       PRES   REMARKS
MCCALL         CLOUDY    65  38  36 W8        29.90S
HAILEY         PTSUNNY   68  39  34 SW14G22   29.92R
STANLEY          N/A     64  34  32 VRB7      29.98S
SALMON         CLOUDY    61  54  77 S7        29.87R
CHALLIS        PTSUNNY   67  43  41 CALM      29.85F
$$

IDZ002-004-006-007-026-310200-
NORTHERN IDAHO


CITY           SKY/WX    TMP DP  RH WIND       PRES   REMARKS
LEWISTON       CLOUDY    75  47  36 W21G31    29.80S
LOWELL           N/A     70  50  49 VRB3      29.80S
COEUR D`ALENE  PTSUNNY   72  41  33 W12       29.81S
MULLAN PASS    PTSUNNY   51  40  65 VRB6      29.94F
$$



USA.gov is the U.S. government's official web portal to all federal, state and local government web resources and services.